Powrót do katalogu

STARLINK-35063

AktywnyŁącznośćSSO
NORAD 65528·PAYLOAD·🇺🇸 United States

Wystrzelony Sep 6, 2025 z Cape Canaveral Space Force Station

Loading…

Następne Przeloty (najbliższe 24 godziny)

TLE

ŚwieżeSource: CelesTrak SupGP

Epoka: Sep 15, 2026, 04:05 UTC

1 65528C 25200J   26258.17062500  .00006327  00000+0  19625-3 0  2580
2 65528  97.2842 324.6438 0001274  86.0031 318.7617 15.33460134    16

Śledź STARLINK-35063 w czasie rzeczywistym z AllMySat

Download on the App Store